| time (UTC) | temp F | wind direction | speed MPH | gust MPH | rain 1hr in | rain 24hr in | rain mn in | humidity % | barometer mb |
| 20260503220826 | 52 | 216 | 3.0 | 3.0 | 0.01 | 0.29 | 0.02 | 85 | 1007.1 |
| 20260503220304 | 52 | 216 | 3.0 | 6.0 | 0.02 | 0.28 | 0.00 | 85 | 1007.0 |
| 20260503220059 | 52 | 216 | 3.0 | 6.0 | 0.01 | 0.02 | 0.00 | 85 | 1007.0 |
| 20260503214600 | 52 | 194 | 3.0 | 7.0 | 0.00 | 0.01 | 0.00 | 85 | 1007.0 |
| 20260503213804 | 52 | 207 | 5.0 | 6.0 | 0.00 | 0.26 | 0.01 | 85 | 1007.2 |
| 20260503213305 | 52 | 219 | 5.0 | 9.0 | 0.00 | 0.26 | 0.01 | 85 | 1007.3 |
| 20260503213108 | 52 | 225 | 6.0 | 9.0 | 0.00 | 0.01 | 0.00 | 85 | 1007.3 |
| 20260503211804 | 52 | 220 | 6.0 | 10.0 | 0.01 | 0.26 | 0.01 | 85 | 1007.6 |
| 20260503211559 | 52 | 228 | 7.0 | 10.0 | 0.00 | 0.01 | 0.00 | 84 | 1007.6 |
| 20260503211305 | 52 | 222 | 6.0 | 10.0 | 0.00 | 0.26 | 0.01 | 85 | 1007.7 |
| 20260503210804 | 52 | 234 | 7.0 | 10.0 | 0.00 | 0.26 | 0.01 | 85 | 1007.6 |
| 20260503210304 | 52 | 228 | 9.0 | 10.0 | 0.00 | 0.26 | 0.01 | 85 | 1007.7 |
| 20260503210112 | 52 | 229 | 8.0 | 11.0 | 0.00 | 0.01 | 0.00 | 84 | 1007.7 |
| 20260503204804 | 52 | 228 | 6.0 | 9.0 | 0.00 | 0.26 | 0.01 | 85 | 1007.8 |
| 20260503204609 | 52 | 223 | 6.0 | 9.0 | 0.00 | 0.01 | 0.00 | 84 | 1007.7 |
| 20260503204304 | 52 | 227 | 6.0 | 9.0 | 0.00 | 0.26 | 0.01 | 85 | 1007.8 |
| 20260503203804 | 52 | 231 | 5.0 | 8.0 | 0.00 | 0.26 | 0.01 | 85 | 1007.9 |
| 20260503203305 | 53 | 216 | 6.0 | 10.0 | 0.00 | 0.26 | 0.01 | 85 | 1007.9 |
| 20260503203105 | 52 | 225 | 5.0 | 10.0 | 0.00 | 0.01 | 0.00 | 84 | 1007.9 |
| 20260503201604 | 52 | 230 | 9.0 | 13.0 | 0.00 | 0.01 | 0.00 | 84 | 1008.1 |
| 20260503201304 | 53 | 224 | 9.0 | 12.0 | 0.00 | 0.25 | 0.01 | 84 | 1008.1 |
| 20260503200304 | 53 | 231 | 7.0 | 12.0 | 0.00 | 0.24 | 0.01 | 84 | 1008.3 |
| 20260503200101 | 52 | 223 | 8.0 | 12.0 | 0.00 | 0.01 | 0.00 | 84 | 1008.4 |
| 20260503194804 | 53 | 238 | 9.0 | 12.0 | 0.00 | 0.24 | 0.01 | 84 | 1008.5 |
| 20260503194600 | 52 | 245 | 8.0 | 12.0 | 0.00 | 0.01 | 0.00 | 83 | 1008.3 |
| 20260503194304 | 53 | 241 | 10.0 | 12.0 | 0.00 | 0.23 | 0.01 | 84 | 1008.5 |
| 20260503193804 | 53 | 241 | 7.0 | 12.0 | 0.01 | 0.22 | 0.01 | 84 | 1008.5 |
| 20260503193305 | 53 | 230 | 7.0 | 14.0 | 0.00 | 0.22 | 0.01 | 84 | 1008.5 |
| 20260503193101 | 52 | 245 | 9.0 | 14.0 | 0.00 | 0.01 | 0.00 | 83 | 1008.5 |
| 20260503191804 | 53 | 236 | 10.0 | 13.0 | 0.00 | 0.21 | 0.01 | 83 | 1008.6 |
| 20260503191622 | 53 | 231 | 6.0 | 10.0 | 0.00 | 0.01 | 0.00 | 82 | 1008.6 |
| 20260503191304 | 53 | 239 | 6.0 | 9.0 | 0.01 | 0.21 | 0.01 | 83 | 1008.6 |
| 20260503190804 | 53 | 228 | 5.0 | 10.0 | 0.00 | 0.21 | 0.01 | 83 | 1008.4 |
| 20260503190304 | 54 | 223 | 7.0 | 10.0 | 0.00 | 0.21 | 0.01 | 83 | 1008.3 |
| 20260503190059 | 53 | 221 | 6.0 | 10.0 | 0.00 | 0.01 | 0.00 | 82 | 1008.3 |
| 20260503184601 | 53 | 224 | 6.0 | 9.0 | 0.00 | 0.01 | 0.00 | 81 | 1008.3 |
| 20260503183804 | 54 | 220 | 3.0 | 5.0 | 0.02 | 0.19 | 0.00 | 82 | 1008.4 |
| 20260503183115 | 54 | 227 | 4.0 | 6.0 | 0.00 | 0.01 | 0.00 | 81 | 1008.2 |
| 20260503181804 | 54 | 228 | 4.0 | 6.0 | 0.00 | 0.19 | 0.01 | 81 | 1008.3 |
| 20260503181602 | 54 | 198 | 4.0 | 6.0 | 0.00 | 0.01 | 0.00 | 81 | 1008.1 |
| 20260503180804 | 54 | 224 | 4.0 | 8.0 | 0.00 | 0.18 | 0.01 | 81 | 1008.3 |
| 20260503180304 | 55 | 222 | 5.0 | 8.0 | 0.00 | 0.18 | 0.01 | 81 | 1008.4 |
| 20260503180056 | 54 | 231 | 3.0 | 7.0 | 0.00 | 0.01 | 0.00 | 81 | 1008.4 |
| 20260503174804 | 55 | 243 | 7.0 | 8.0 | 0.00 | 0.17 | 0.00 | 81 | 1008.5 |
| 20260503174558 | 54 | 238 | 4.0 | 9.0 | 0.00 | 0.01 | 0.00 | 80 | 1008.5 |
| 20260503174304 | 55 | 238 | 4.0 | 8.0 | 0.00 | 0.17 | 0.01 | 81 | 1008.5 |
| 20260503173804 | 55 | 238 | 6.0 | 9.0 | 0.00 | 0.17 | 0.01 | 81 | 1008.5 |
| 20260503173304 | 55 | 237 | 6.0 | 9.0 | 0.00 | 0.17 | 0.01 | 80 | 1008.5 |
| 20260503173117 | 54 | 224 | 5.0 | 8.0 | 0.00 | 0.01 | 0.00 | 80 | 1008.6 |
| 20260503171804 | 55 | 247 | 6.0 | 9.0 | 0.00 | 0.17 | 0.01 | 80 | 1008.6 |
| 20260503171559 | 54 | 274 | 7.0 | 10.0 | 0.00 | 0.01 | 0.00 | 79 | 1008.6 |
| 20260503171304 | 55 | 248 | 9.0 | 10.0 | 0.00 | 0.17 | 0.01 | 80 | 1008.6 |
| 20260503170304 | 55 | 259 | 7.0 | 10.0 | 0.00 | 0.17 | 0.01 | 79 | 1008.7 |
| 20260503150804 | 55 | 244 | 7.0 | 10.0 | 0.00 | 0.17 | 0.01 | 78 | 1009.3 |
| 20260503140304 | 55 | 260 | 10.0 | 13.0 | 0.00 | 0.16 | 0.01 | 76 | 1009.8 |
| 20260503131305 | 55 | 290 | 9.0 | 12.0 | 0.00 | 0.15 | 0.01 | 80 | 1010.1 |
| 20260503130804 | 55 | 304 | 8.0 | 12.0 | 0.00 | 0.15 | 0.01 | 79 | 1010.2 |
| 20260503120116 | 52 | 318 | 6.0 | 8.0 | 0.00 | 0.01 | 0.00 | 81 | 1010.5 |
| 20260503110804 | 52 | 284 | 6.0 | 8.0 | 0.00 | 0.14 | 0.01 | 84 | 1010.8 |
| 20260503110304 | 52 | 329 | 5.0 | 9.0 | 0.00 | 0.14 | 0.01 | 84 | 1010.8 |
| 20260503100107 | 50 | 288 | 5.0 | 11.0 | 0.00 | 0.01 | 0.00 | 85 | 1010.7 |
| 20260503090304 | 50 | 328 | 9.0 | 12.0 | 0.00 | 0.11 | 0.01 | 86 | 1010.5 |
| 20260503081557 | 50 | 331 | 7.0 | 13.0 | 0.00 | 0.01 | 0.00 | 86 | 1010.4 |
| 20260503081304 | 51 | 337 | 9.0 | 10.0 | 0.00 | 0.10 | 0.01 | 86 | 1010.5 |
| 20260503080804 | 51 | 331 | 11.0 | 13.0 | 0.00 | 0.09 | 0.01 | 86 | 1010.5 |
| 20260503071804 | 51 | 353 | 6.0 | 12.0 | 0.00 | 0.09 | 0.01 | 86 | 1009.9 |
| 20260503071611 | 51 | 345 | 8.0 | 12.0 | 0.00 | 0.01 | 0.00 | 86 | 1009.9 |
| 20260503070804 | 51 | 344 | 7.0 | 10.0 | 0.00 | 0.09 | 0.01 | 86 | 1009.9 |
| 20260503070304 | 51 | 338 | 8.0 | 12.0 | 0.00 | 0.09 | 0.01 | 86 | 1009.9 |
| 20260503070109 | 51 | 331 | 8.0 | 11.0 | 0.00 | 0.01 | 0.00 | 85 | 1009.9 |
| 20260503060306 | 52 | 317 | 6.0 | 10.0 | 0.00 | 0.09 | 0.01 | 86 | 1009.7 |
| 20260503054804 | 52 | 290 | 6.0 | 8.0 | 0.00 | 0.09 | 0.01 | 85 | 1009.4 |
| 20260503054608 | 52 | 305 | 4.0 | 9.0 | 0.00 | 0.01 | 0.00 | 85 | 1009.3 |
| 20260503054304 | 52 | 311 | 5.0 | 8.0 | 0.00 | 0.09 | 0.01 | 85 | 1009.4 |
| 20260503053804 | 52 | 307 | 6.0 | 8.0 | 0.00 | 0.09 | 0.01 | 85 | 1009.4 |
| 20260503053305 | 52 | 326 | 5.0 | 8.0 | 0.00 | 0.09 | 0.01 | 85 | 1009.3 |
| 20260503053058 | 51 | 329 | 4.0 | 8.0 | 0.00 | 0.01 | 0.00 | 85 | 1009.3 |
| 20260503051804 | 52 | 345 | 7.0 | 9.0 | 0.00 | 0.09 | 0.01 | 85 | 1009.2 |
| 20260503051606 | 51 | 340 | 6.0 | 10.0 | 0.00 | 0.01 | 0.00 | 85 | 1009.0 |
| 20260503051304 | 52 | 345 | 6.0 | 9.0 | 0.00 | 0.09 | 0.01 | 85 | 1009.1 |
| 20260503050804 | 52 | 334 | 7.0 | 10.0 | 0.00 | 0.09 | 0.01 | 86 | 1009.2 |
| 20260503050304 | 52 | 328 | 7.0 | 12.0 | 0.00 | 0.09 | 0.01 | 86 | 1009.1 |
| 20260503050100 | 51 | 328 | 6.0 | 12.0 | 0.00 | 0.01 | 0.00 | 85 | 1009.0 |
| 20260503044804 | 52 | 324 | 7.0 | 10.0 | 0.00 | 0.09 | 0.01 | 86 | 1009.1 |
| 20260503044603 | 51 | 327 | 6.0 | 10.0 | 0.00 | 0.01 | 0.00 | 85 | 1009.1 |
| 20260503043305 | 52 | 333 | 6.0 | 10.0 | 0.00 | 0.09 | 0.01 | 85 | 1009.0 |
| 20260503043057 | 52 | 350 | 6.0 | 10.0 | 0.00 | 0.01 | 0.00 | 85 | 1009.0 |
| 20260503041804 | 52 | 321 | 6.0 | 9.0 | 0.00 | 0.09 | 0.01 | 86 | 1009.1 |
| 20260503041607 | 52 | 333 | 6.0 | 9.0 | 0.00 | 0.01 | 0.00 | 85 | 1009.1 |
| 20260503041304 | 52 | 319 | 6.0 | 9.0 | 0.00 | 0.09 | 0.01 | 86 | 1009.0 |
| 20260503040804 | 52 | 322 | 4.0 | 6.0 | 0.00 | 0.09 | 0.01 | 86 | 1009.0 |
| 20260503040059 | 52 | 331 | 4.0 | 8.0 | 0.00 | 0.01 | 0.00 | 85 | 1009.0 |
| 20260503034805 | 52 | 14 | 5.0 | 9.0 | 0.00 | 0.09 | 0.01 | 86 | 1009.2 |
| 20260503034613 | 52 | 337 | 3.0 | 7.0 | 0.00 | 0.01 | 0.00 | 85 | 1009.2 |
| 20260503034304 | 52 | 11 | 5.0 | 6.0 | 0.00 | 0.09 | 0.01 | 86 | 1009.2 |
| 20260503033804 | 52 | 22 | 5.0 | 6.0 | 0.00 | 0.09 | 0.01 | 85 | 1009.1 |
| 20260503033305 | 52 | 26 | 5.0 | 10.0 | 0.00 | 0.09 | 0.01 | 85 | 1009.2 |
| 20260503033101 | 52 | 18 | 3.0 | 10.0 | 0.00 | 0.01 | 0.00 | 85 | 1009.1 |
| 20260503031805 | 52 | 23 | 6.0 | 10.0 | 0.00 | 0.08 | 0.01 | 85 | 1009.2 |
| 20260503031600 | 52 | 18 | 8.0 | 11.0 | 0.00 | 0.01 | 0.00 | 85 | 1009.2 |
| 20260503030804 | 53 | 22 | 8.0 | 12.0 | 0.00 | 0.07 | 0.01 | 85 | 1009.2 |
| 20260503030107 | 52 | 14 | 5.0 | 12.0 | 0.00 | 0.01 | 0.00 | 85 | 1009.2 |
| 20260503024804 | 53 | 32 | 7.0 | 12.0 | 0.00 | 0.07 | 0.01 | 85 | 1009.2 |
| 20260503024606 | 52 | 37 | 7.0 | 13.0 | 0.00 | 0.01 | 0.00 | 85 | 1009.2 |
| 20260503024304 | 53 | 32 | 9.0 | 13.0 | 0.00 | 0.07 | 0.01 | 85 | 1009.3 |
| 20260503023804 | 53 | 18 | 9.0 | 12.0 | 0.00 | 0.06 | 0.01 | 85 | 1009.1 |
| 20260503023304 | 54 | 0 | 7.0 | 13.0 | 0.00 | 0.06 | 0.01 | 85 | 1009.2 |
| 20260503023110 | 53 | 358 | 7.0 | 13.0 | 0.00 | 0.01 | 0.00 | 84 | 1009.2 |
| 20260503021804 | 54 | 338 | 7.0 | 12.0 | 0.00 | 0.06 | 0.01 | 85 | 1009.0 |
| 20260503021603 | 54 | 340 | 9.0 | 13.0 | 0.00 | 0.01 | 0.00 | 84 | 1009.0 |
| 20260503021304 | 55 | 327 | 9.0 | 13.0 | 0.00 | 0.06 | 0.01 | 85 | 1009.0 |
| 20260503020805 | 54 | 316 | 8.0 | 12.0 | 0.00 | 0.06 | 0.01 | 85 | 1009.1 |
| 20260503020304 | 55 | 304 | 8.0 | 15.0 | 0.00 | 0.06 | 0.01 | 84 | 1009.0 |
| 20260503014804 | 55 | 292 | 9.0 | 14.0 | 0.00 | 0.06 | 0.01 | 84 | 1009.0 |
| 20260503014624 | 55 | 300 | 9.0 | 15.0 | 0.00 | 0.01 | 0.00 | 84 | 1009.0 |
| 20260503014304 | 55 | 290 | 10.0 | 15.0 | 0.00 | 0.06 | 0.01 | 84 | 1008.9 |
| 20260503013805 | 55 | 286 | 9.0 | 13.0 | 0.00 | 0.06 | 0.01 | 84 | 1009.0 |
| 20260503013304 | 55 | 275 | 10.0 | 15.0 | 0.00 | 0.05 | 0.01 | 84 | 1009.0 |
| 20260503013057 | 55 | 254 | 10.0 | 14.0 | 0.00 | 0.01 | 0.00 | 84 | 1009.0 |
| 20260503011600 | 55 | 270 | 10.0 | 18.0 | 0.00 | 0.01 | 0.00 | 84 | 1009.1 |
| 20260503010804 | 55 | 261 | 12.0 | 18.0 | 0.00 | 0.05 | 0.01 | 85 | 1009.2 |
| 20260503010306 | 55 | 251 | 10.0 | 12.0 | 0.00 | 0.05 | 0.01 | 85 | 1009.2 |
| 20260503010058 | 55 | 249 | 8.0 | 12.0 | 0.00 | 0.01 | 0.00 | 85 | 1009.1 |
| 20260503004804 | 55 | 252 | 3.0 | 7.0 | 0.00 | 0.05 | 0.01 | 85 | 1009.2 |
| 20260503004601 | 54 | 237 | 4.0 | 7.0 | 0.00 | 0.01 | 0.00 | 84 | 1009.1 |
| 20260503004304 | 55 | 234 | 3.0 | 7.0 | 0.00 | 0.05 | 0.01 | 85 | 1009.3 |
| 20260503003804 | 55 | 230 | 3.0 | 5.0 | 0.00 | 0.05 | 0.01 | 85 | 1009.2 |
| 20260503003304 | 55 | 219 | 3.0 | 6.0 | 0.00 | 0.05 | 0.01 | 85 | 1009.4 |
| 20260503003100 | 54 | 221 | 3.0 | 6.0 | 0.00 | 0.01 | 0.00 | 84 | 1009.3 |
| 20260503001804 | 55 | 230 | 5.0 | 7.0 | 0.00 | 0.05 | 0.01 | 85 | 1009.5 |
| 20260503001601 | 54 | 235 | 4.0 | 9.0 | 0.00 | 0.01 | 0.00 | 84 | 1009.4 |
| 20260503000804 | 55 | 228 | 6.0 | 8.0 | 0.00 | 0.04 | 0.01 | 85 | 1009.5 |
| 20260503000304 | 55 | 223 | 6.0 | 10.0 | 0.00 | 0.04 | 0.01 | 85 | 1009.5 |
| 20260503000100 | 54 | 220 | 6.0 | 10.0 | 0.00 | 0.01 | 0.00 | 84 | 1009.5 |
| 20260502234804 | 54 | 236 | 7.0 | 8.0 | 0.00 | 0.03 | 0.01 | 85 | 1009.6 |
| 20260502234601 | 54 | 235 | 7.0 | 9.0 | 0.00 | 0.01 | 0.00 | 84 | 1009.6 |
| 20260502234304 | 54 | 237 | 7.0 | 9.0 | 0.01 | 0.03 | 0.01 | 85 | 1009.7 |
| 20260502233304 | 54 | 224 | 5.0 | 7.0 | 0.01 | 0.02 | 0.01 | 85 | 1009.8 |
| 20260502233103 | 54 | 221 | 5.0 | 8.0 | 0.00 | 0.01 | 0.00 | 84 | 1009.7 |
| 20260502231804 | 54 | 220 | 6.0 | 7.0 | 0.01 | 0.02 | 0.01 | 84 | 1009.8 |
| 20260502231607 | 54 | 219 | 5.0 | 8.0 | 0.00 | 0.01 | 0.00 | 84 | 1009.8 |
| 20260502231304 | 54 | 213 | 6.0 | 7.0 | 0.01 | 0.02 | 0.01 | 84 | 1009.9 |
| 20260502230804 | 54 | 225 | 6.0 | 8.0 | 0.01 | 0.02 | 0.01 | 84 | 1010.0 |
| 20260502230304 | 54 | 228 | 4.0 | 7.0 | 0.00 | 0.02 | 0.01 | 84 | 1010.0 |
| 20260502230058 | 54 | 228 | 3.0 | 7.0 | 0.00 | 0.01 | 0.00 | 84 | 1010.0 |
| 20260502224559 | 54 | 221 | 4.0 | 5.0 | 0.00 | 0.01 | 0.00 | 84 | 1009.9 |
| 20260502224304 | 55 | 230 | 3.0 | 5.0 | 0.00 | 0.01 | 0.00 | 84 | 1010.0 |
| 20260502223804 | 55 | 188 | 3.0 | 3.0 | 0.00 | 0.01 | 0.00 | 84 | 1009.9 |
| 20260502223100 | 54 | 182 | 0.0 | 2.0 | 0.00 | 0.00 | 0.00 | 83 | 1009.8 |
| 20260502221804 | 55 | 182 | 2.0 | 3.0 | 0.00 | 0.01 | 0.00 | 84 | 1010.1 |
| 20260502221601 | 54 | 182 | 2.0 | 4.0 | 0.00 | 0.00 | 0.00 | 83 | 1010.0 |
| 20260502221305 | 55 | 48 | 2.0 | 3.0 | 0.00 | 0.01 | 0.00 | 83 | 1010.0 |